星链-32009 (STARLINK-32009 )

导读

STARLINK-32009是美国SpaceX星链星座的卫星,于2024年6月23日发射升空。星链计划旨在构建全球卫星互联网星座,为全球偏远、欠发达地区及传统网络难以覆盖区域提供高速互联网接入服务,该卫星将助力星链网络进一步扩展覆盖范围与服务能力。

Basic Information
目录编号:
60104
目录名称:
STARLINK-32009
国际标识:
2024-117P
轨道中心:
EARTH
卫星名称:
星链-32009
卫星全名:
星链-32009 (STARLINK-32009 )
卫星状态:
在轨 (已飞行811 天)
发射日期:
2024-06-23 UTC
国别 :
美国 (US)
星等 :
--
This satellite is enrolled in the Space Conjunction Data Service (SCDS) and the current flight risk assessment level is: High Risk
Orbit Information
数据来源 国际轨道数据 AOE轨道数据
星历时间 2026-09-11T17:57:27+0800
17小时前
查看轨道信息
2026-09-10T22:00:00+0800
1天前
查看轨道信息
半长轴 6840.867km 6840.893km
偏心率 0.0001152 0.0001672
轨道倾角 53.159° 53.149°
近地点辐角 84.918° 90.269°
升交点赤经 252.170° 256.058°
平近点角 275.195° 353.870°
近地点 461.941km 461.612km
远地点 463.519km 463.9km
周期 93.848分钟 93.849分钟
每日圈数 15.34391 15.343823
Detailed Information
固有亮度:
5
最大亮度:
1.5
卫星平台:
Starlink v2.0 mini
覆盖范围:
全球
运营商:
太空探索技术公司
运营商所在国:
美国
制造商(研发单位):
太空探索技术公司
制造商所在国:
美国
使用方式:
暂无
Satellite Introduction
星链(Starlink)计划是由太空探索技术公司(SpaceX)提出的一个巨型低轨卫星互联网星座项目,计划在2019年至2024年间在太空搭建由约1.2万颗卫星组成的“星链”网络,其中1584颗将部署在地球上空550千米处的近地轨道,并从2020年开始工作。该卫星仍在工作。
2D Orbit Map
3D Orbit Map
Orbit Altitude Analysis Chart
Orbit Inclination Analysis Chart
Orbit Comprehensive Analysis Chart
View Comprehensive Chart
Conjunction Data List
Event ID Objects TCA Miss Dist (km) Collision Risk Probability Collision Risk Index (CRI) Action
CDM_260914-005406-010406-952921
2026-09-14T
00:54:13+0000
0.247 km
中距离
3.056769E-4 高风险 0.85
CDM_260913-205906-010406-952921
2026-09-13T
20:59:45+0000
0.278 km
中距离
2.495826E-4 高风险 0.83
CDM_260913-192506-010406-952921
2026-09-13T
19:25:57+0000
1.918 km
极远距离
9.961026E-7 极低风险 0.35
CDM_260914-022806-010406-952921
2026-09-14T
02:28:01+0000
2.068 km
极远距离
8.434984E-7 极低风险 0.34
CDM_260913-223306-010406-952921
2026-09-13T
22:33:32+0000
2.221 km
极远距离
7.312258E-7 极低风险 0.32
CDM_260913-232006-010406-952921
2026-09-13T
23:20:26+0000
2.292 km
极远距离
6.90745E-7 极低风险 0.32
Miss Distance Evolution Trend with All Objects
Collision Probability Evolution Trend with All Objects